Regional Weather Roundup
Issued by NWS Mobile, AL

Home | Current Version | Previous Version | Text Only | Print | Product List | Glossary On
Versions: 1 2 3 4 5 6 7 8 9 10 11 12 13 14 15 16 17 18 19 20 21 22 23 24 25 26 27 28 29 30 31 32 33 34 35 36 37 38 39 40 41 42 43 44 45 46 47 48 49 50
000
ASUS44 KMOB 250613
RWRMOB
REGIONAL WEATHER ROUNDUP
NATIONAL WEATHER SERVICE MOBILE AL
100 AM CDT TUE JUL 25 2017

NOTE: "FAIR" INDICATES FEW OR NO CLOUDS BELOW 12,000 FEET WITH NO
      SIGNIFICANT WEATHER AND/OR OBSTRUCTIONS TO VISIBILITY.

  * THESE STATIONS ARE PART OF THE UNIVERSITY OF SOUTH ALABAMA
    MESONET AND ARE NOT UNDER NWS OR FAA QUALITY CONTROL.

ALZ061>064-250700-
COASTAL ALABAMA

CITY           SKY/WX    TMP DP  RH WIND       PRES   REMARKS
MOBILE REG APT PTCLDY    74  73  97 SW5       30.08F
6HR MIN TEMP:  74; 6HR MAX TEMP:  79;

BROOKLEY FIELD CLEAR     76  75  97 CALM      30.08S
6HR MIN TEMP:  76; 6HR MAX TEMP:  81;

USA CAMPUS*      N/A     68  68 100 CALM      30.07S
DOG RIVER*     NOT AVBL


CITY           SKY/WX    TMP DP  RH WIND       PRES   REMARKS
GULF SHORES    CLEAR     74  74 100 CALM      30.07S

$$

ALZ051>060-250700-
INTERIOR SOUTHWEST AND SOUTH CENTRAL ALABAMA

CITY           SKY/WX    TMP DP  RH WIND       PRES   REMARKS
GREENVILLE     CLOUDY    75  70  84 W6        30.05S
6HR MIN TEMP:  75; 6HR MAX TEMP:  81;

EVERGREEN      CLOUDY    75  72  90 S5        30.06R
6HR MIN TEMP:  73; 6HR MAX TEMP:  80;

ATMORE*        NOT AVBL
ANDALUSIA/OPP  PTCLDY    77  72  84 CALM      30.05S
6HR MIN TEMP:  76; 6HR MAX TEMP:  85;

ANDALUSIA*       N/A     73  72  94 SW3       30.06S
FLORALA APT    NOT AVBL
FLORALA*         N/A     73  72  94 CALM      30.78R

$$

FLZ001>006-250700-
WESTERN FLORIDA PANHANDLE

CITY           SKY/WX    TMP DP  RH WIND       PRES   REMARKS
PENSACOLA      CLEAR     79  73  82 W7        30.06S
6HR MIN TEMP:  78; 6HR MAX TEMP:  83;

NAS PENSACOLA  CLEAR     77  73  87 W3        30.06S
6HR MIN TEMP:  76; 6HR MAX TEMP:  80; 6HR PCP: TRACE;

MILTON         CLEAR     74  73  97 SW6       30.06S
6HR MIN TEMP:  74; 6HR MAX TEMP:  81;

WHTNG S FIELD  PTCLDY    77  74  90 CALM      30.06S
6HR MIN TEMP:  77; 6HR MAX TEMP:  83;



CITY           SKY/WX    TMP DP  RH WIND       PRES   REMARKS
JAY*             N/A     73  73 100 SW6       30.06F
DUKE FIELD     CLEAR     76  72  85 SW5       30.06S
CRESTVIEW      CLEAR     76  72  87 SW3       30.07S
6HR MIN TEMP:  74; 6HR MAX TEMP:  82;

VALPARAISO     PTCLDY    77  72  84 W5        30.06S
6HR MIN TEMP:  77; 6HR MAX TEMP:  85;

DESTIN         MOCLDY    84  72  67 VRB3      30.06S
6HR MIN TEMP:  84; 6HR MAX TEMP:  87;


$$

MSZ076-079-250700-
INTERIOR SOUTHEAST MISSISSIPPI

CITY           SKY/WX    TMP DP  RH WIND       PRES   REMARKS
LEAKESVILLE*     N/A     72  72 100 SW3       30.07
AGRICOLA*        N/A     72  72 100 CALM      30.06

$$

MARINE OBSERVATIONS

STATION/POSITION TIME  TEMP    WIND        PRES    WAVE
                       AIR SEA DIR/SP/G            HT/PER
                 (UTC) (F)     (DEG/KT/KT) (MB)    (FT/S)
PASCAGOULA       0548   76     360/  1/  2 1018.2S
PETIT BOIS ISLND 0548   80     270/  8/ 10 1019.0S
GRAND BAY        0430   76     340/  2     1019.0S
KATRINA CUT      0530   80     300/  6     1018.0F
CEDAR POINT      0530   78     300/  3     1018.3S
E DAUPHIN ISLAND 0500   78     300/  6/  7 1018.1R
MIDDLE BAY LIGHT 0530   79     290/  9     1018.3S
USCG MOBILE BAY  0548   75 85  210/  2/  4 1018.8F
STATE DOCKS      0548   77 86              1018.0F
MEAHER PARK      0530   78     250/  7     1018.6R
WEEKS BAY        0445   75                   N/A
FORT MORGAN      0548   79     300/  5/  7   N/A
12 S ORANGE BCH  0450   82 83  270/ 12/ 14 1017.8R   1/ 5
PENSACOLA BAY    0548   78 85              1018.4R
64 S DAUPHIN ISL 0550   83 85  220/ 10/ 12 1018.5F   1/ 4
67 S FORT MORGAN 0530   82     250/  6     1018.6S

$$

SELECTED LOCATIONS ACROSS THE REGION

CITY           SKY/WX    TMP DP  RH WIND       PRES   REMARKS
NEW ORLEANS    MOCLDY    78  74  87 S3        30.07S
GULFPORT       CLEAR     75  74  96 CALM      30.06F
PASCAGOULA AP  CLEAR     72  70  93 CALM      30.07S FOG
PASCAGOULA*      N/A    N/A N/A N/A CALM        N/A
HATTIESBURG    CLOUDY    73  73 100 SW3       30.06F
LAUREL         CLOUDY    73  72  96 CALM      30.07R
MERIDIAN       CLOUDY    76  75  97 CALM      30.05R
JACKSON        CLOUDY    76  75  97 S8        30.04S
MONTGOMERY     CLOUDY    79  73  82 CALM      30.04S
TROY           CLOUDY    75  73  93 SW3       30.06S
ASHFORD*         N/A     73  72  94 SW3       30.06S
DOTHAN         PTCLDY    76  76 100 SW6       30.08S
PANAMA CITY    PTCLDY    78  74  87 SW5       30.05S

$$




USA.gov is the U.S. government's official web portal to all federal, state and local government web resources and services.